Flag for Belgium Weather past 2 weeks in Mons, Belgium

Now
63 °F

Dense fog.


Feels Like: 63 °F
Forecast: 53 / 64 °F
Wind: 10 mph from North

Location: Chievres

Current Time: Sep 20, 2014 at 10:50:56 PM

Latest Report: Sep 20, 2014 at 10:25 PM


Visibility: 1 mi

Pressure: 30.01 "Hg

Humidity: 100%

Dew point: 63 °F

Location of MonsLocation

Historic Weather in Mons — Graph

°F

Mons temperature yesterday

Maximum temperature yesterday: 79 °F (at 3:25 PM)
Minimum temperature yesterday: 57 °F (at 5:51 AM)
Average temperature yesterday: 65 °F

Past Weeks' High & Low Weather Summary

 TemperatureHumidityPressure
High79 °F (Sep 17, 2:25 PM)100% (Sep 6, 1:25 AM)30.27 "Hg (Sep 6, 1:25 AM)
Low46 °F (Sep 11, 7:25 AM)45% (Sep 17, 2:25 PM)29.77 "Hg (Sep 18, 5:25 AM)
Average61 °F85%30.03 "Hg
* Reported Sep 5 9:25 PM — Sep 20 9:25 PM, Mons, Weather by CustomWeather, © 2014

Note: Actual official high and low records may vary slightly from our data, if they occured in-between our weather recording intervals... More about our weather records

Advertising

Mons weather history for previous 24 hours

 ConditionsComfort  
Time TempWeatherWind HumidityBarometerVisibility
9:25 PM
Sep 20
64 °FMostly cloudy.1 mph94%30.01 "Hg1 mi
8:25 PM64 °FPartly sunny.7 mph100%29.98 "Hg2 mi
7:25 PM68 °FPartly sunny.8 mph88%29.98 "Hg2 mi
3:25 PM75 °FScattered clouds.5 mph65%29.95 "HgN/A
2:25 PM73 °FPassing clouds.3 mph74%29.98 "HgN/A
1:25 PM72 °FBroken clouds.2 mph73%29.98 "HgN/A
12:25 PM72 °FScattered clouds.2 mph78%29.98 "HgN/A
11:25 AM68 °FPartly sunny.5 mph88%29.98 "HgN/A
10:25 AM66 °FBroken clouds.3 mph88%29.98 "HgN/A
9:25 AM64 °FPassing clouds.5 mph94%29.95 "Hg6 mi
8:56 AM63 °FPassing clouds.1 mph100%29.95 "Hg2 mi
8:25 AM61 °FPassing clouds.5 mph100%29.95 "Hg2 mi
7:25 AM61 °FPassing clouds.3 mph100%29.92 "Hg2 mi
7:03 AM61 °FPassing clouds.3 mph100%29.92 "Hg3 mi
6:25 AM61 °FPassing clouds.1 mph100%29.92 "Hg2 mi
5:25 AM61 °FPartly cloudy.6 mph100%29.92 "Hg4 mi
4:47 AM59 °FPassing clouds.3 mph100%29.92 "Hg3 mi
4:25 AM61 °FCool.2 mph94%29.92 "Hg3 mi
3:25 AM59 °FCool.2 mph100%29.92 "Hg4 mi
2:52 AM61 °FCool.2 mph100%29.92 "Hg4 mi
2:25 AM61 °FCool.3 mph100%29.92 "Hg6 mi
1:25 AM64 °FPassing clouds.2 mph88%29.92 "HgN/A
12:25 AM63 °FPassing clouds.3 mph94%29.92 "HgN/A
11:25 PM
Sep 19
63 °FPassing clouds.2 mph94%29.92 "HgN/A
10:25 PM64 °FPassing clouds.1 mph94%29.92 "HgN/A
Weather by CustomWeather, © 2014

See weather overviewHow to use our weather pages